Regional Weather Roundup
Issued by NWS

Home | Current Version | Previous Version | Text Only | Print | Product List | Glossary On
Versions: 1 2 3 4 5 6 7 8 9 10 11 12 13 14 15 16 17 18 19 20 21 22 23 24 25 26 27 28 29 30 31 32 33 34 35 36 37 38 39 40 41 42 43 44 45 46 47 48 49 50
762
ASUS44 KLIX 191801
RWRLA
LOUISIANA WEATHER ROUNDUP
NATIONAL WEATHER SERVICE NEW ORLEANS LA
100 PM CDT FRI SEP 19 2014

NOTE: "FAIR" INDICATES FEW OR NO CLOUDS BELOW 12,000 FEET WITH NO
      SIGNIFICANT WEATHER AND/OR OBSTRUCTIONS TO VISIBILITY.
      SKY/WX - SKY CONDITION AND SIGNIFICANT WEATHER.
      TMP - AIR TEMPERATURE.    DP   - DEWPOINT TEMPERATURE.
      RH  - RELATIVE HUMIDITY.  PRES - PRESSURE.
      HX  - HEAT INDEX.         WCI  - WIND CHILL INDEX.

*  THESE STATIONS ARE NOT NWS OR FAA STATIONS AND ARE NOT UNDER
   NWS QUALITY CONTROL.

LAZ040-048-061>063-065-066-069-191900-
SOUTHEAST LOUISIANA

CITY           SKY/WX    TMP DP  RH WIND       PRES   REMARKS
N.O. AUDUBON     N/A     85  70  60 MISG        N/A
6HR MIN TEMP:  76; 6HR MAX TEMP:  87;

N.O. INTL ARPT PTSUNNY   87  67  51 E10       29.96F
6HR MIN TEMP:  76; 6HR MAX TEMP:  87;

N.O. LAKEFRONT MOSUNNY   86  70  58 E12       29.97F
6HR MIN TEMP:  76; 6HR MAX TEMP:  86;

N.O. DOWNTOWN* MOCLDY    84  66  54 S5        29.96F
6HR MIN TEMP:  75; 6HR MAX TEMP:  86;

SLIDELL        MOSUNNY   86  69  56 E8        29.96F
6HR MIN TEMP:  72; 6HR MAX TEMP:  86;

BATON ROUGE    PTSUNNY   86  70  58 E9        29.97F
6HR MIN TEMP:  71; 6HR MAX TEMP:  87;

BOOTHVILLE     RAIN      75  74  96 E17G24    29.97R FOG
6HR MIN TEMP:  75; 6HR MAX TEMP:  81; 6HR PCP:  0.26;

BELLE CHASSE   PTSUNNY   86  68  54 E12       29.95F
6HR MIN TEMP:  76; 6HR MAX TEMP:  86;

BOGALUSA*      MOCLDY    85  69  57 SE6       29.99F
6HR MIN TEMP:  72; 6HR MAX TEMP:  87;

GALLIANO*      NOT AVBL
NEW ROADS*     FAIR      84  71  63 SE7       29.97F
6HR MIN TEMP:  71; 6HR MAX TEMP:  85;

GONZALES*      FAIR      84  72  67 E9        29.96S
6HR MIN TEMP:  71; 6HR MAX TEMP:  85;

HAMMOND*       NOT AVBL
HOUMA*         PTSUNNY   84  52  32 E13G18    29.95F
PORT FOURCHON* MOCLDY    77  73  88 SE9G22    29.96F

$$

LAZ041-044-053-054-191900-
SOUTHWEST LOUISIANA

CITY           SKY/WX    TMP DP  RH WIND       PRES   REMARKS
LAKE CHARLES   CLOUDY    85  74  69 NE7       29.93F
6HR MIN TEMP:  73; 6HR MAX TEMP:  86;

LAFAYETTE      MOSUNNY   85  71  63 E7        29.96F
6HR MIN TEMP:  73; 6HR MAX TEMP:  85;

PATTERSON      MOSUNNY   86  72  62 E14       29.97F
6HR MIN TEMP:  72; 6HR MAX TEMP:  88;

SALT POINT       N/A     87  73  62 VRB5      29.94S
6HR MIN TEMP:  76; 6HR MAX TEMP:  87;

NEW IBERIA     PTSUNNY   86  72  62 E9        29.96F
6HR MIN TEMP:  74; 6HR MAX TEMP:  86;

CHENAULT AIRPK PTSUNNY   82  73  74 E13       29.94F

$$

LAZ027-028-191900-
CENTRAL LOUISIANA

CITY           SKY/WX    TMP DP  RH WIND       PRES   REMARKS
FORT POLK      CLOUDY    84  71  65 SE6       29.96F
6HR MIN TEMP:  72; 6HR MAX TEMP:  85;

ALEXANDRIA INT PTSUNNY   88  69  53 SE9       29.95F
6HR MIN TEMP:  70; 6HR MAX TEMP:  88;

ALEXANDRIA     MOSUNNY   86  69  56 E5        29.98F
6HR MIN TEMP:  71; 6HR MAX TEMP:  88;


$$

LAZ001-002-191900-
NORTHWEST LOUISIANA

CITY           SKY/WX    TMP DP  RH WIND       PRES   REMARKS
SHREVEPORT     MOSUNNY   87  72  60 E10       29.97F
6HR MIN TEMP:  73; 6HR MAX TEMP:  87;

BARKSDALE AFB  MOSUNNY   85  70  59 E8        29.98F
6HR MIN TEMP:  70; 6HR MAX TEMP:  86;

DTN SHREVEPORT PTSUNNY   83  71  67 E7        29.98F
6HR MIN TEMP:  71; 6HR MAX TEMP:  84;


$$

LAZ014-016-191900-
NORTHEAST LOUISIANA

CITY           SKY/WX    TMP DP  RH WIND       PRES   REMARKS
MONROE         PTSUNNY   86  69  56 NE7       30.00F
6HR MIN TEMP:  68; 6HR MAX TEMP:  87;

TALLULAH       SUNNY     87  67  51 N6        30.00S
6HR MIN TEMP:  66; 6HR MAX TEMP:  88;


$$




USA.gov is the U.S. government's official web portal to all federal, state and local government web resources and services.